sat.trackr.live / text

‹ back to catalog

CHECKMATE 2

NORAD 56167 · 2023-050F

PAYLOAD ACTIVE UNKNOWN

§ Identity

Operator
Country
US
Launch date
2023-04-02
Launch site
AFWTR
Launch vehicle
Mass (kg)
RCS (m²)

External: N2YO · Heavens-Above · Gunter

§ Orbital elements

Epoch: 2026-05-25T02:10:43.937184Z

Period
103.96 min
Inclination
81.0037°
Eccentricity
0.0007596
Mean motion
13.85155118 rev/d
Perigee alt
940.1 km
Apogee alt
951.2 km
Semi-major
7,323.8 km
B*
1.0011e-4
RAAN
93.8521°
Arg perigee
26.1315°
Mean anomaly
334.0223°
Rev number
15,891

§ Raw data

CHECKMATE 21 56167U 23050F   26145.09078631  .00000125  00000+0  10011-3 0  99902 56167  81.0037  93.8521 0007596  26.1315 334.0223 13.85155118158918

JSON: /api/v1/satellites/56167 · /tle

For live sub-satellite position, see the globe view (requires WebGL).

§ Visibility from observer

Set your observer location to see the next 7 days of passes ≥ 10°. The values pass through the URL so the page stays shareable.

No JS? Fill the form by hand. The geolocation button needs JavaScript.